Date,TemperatureHighF,TemperatureAvgF,TemperatureLowF,DewpointHighF,DewpointAvgF,DewpointLowF,HumidityHigh,HumidityAvg,HumidityLow,PressureMaxIn,PressureMinIn,WindSpeedMaxMPH,WindSpeedAvgMPH,GustSpeedMaxMPH,PrecipitationSumIn
2013-6-1,74,60,47,54,49,43,97,71,33,30.25,30.04,3,0,8,0.00
2013-6-2,70,59,50,53,51,49,96,76,52,30.10,30.04,3,0,6,0.00
2013-6-3,72,59,48,57,52,48,99,79,51,30.13,30.05,3,1,10,0.00
2013-6-4,80,65,48,58,54,47,100,72,39,30.13,30.00,3,0,7,0.00
2013-6-5,78,66,50,59,55,48,97,70,48,30.09,30.01,3,0,7,0.00
2013-6-6,80,66,50,61,54,46,99,69,38,30.06,29.99,3,0,6,0.00
2013-6-7,71,62,54,57,50,43,85,67,40,30.15,30.02,6,1,15,0.00
2013-6-8,70,60,54,54,51,48,85,74,55,30.20,30.10,2,0,6,0.00
2013-6-9,69,59,51,52,49,46,89,70,49,30.12,30.01,5,0,9,0.00
2013-6-10,72,60,48,52,48,44,89,66,43,30.05,29.87,3,0,7,0.00
2013-6-11,66,58,52,52,48,45,82,70,48,30.12,29.95,5,1,13,0.00
2013-6-12,66,57,52,52,49,47,95,75,53,30.16,30.11,3,0,8,0.03
2013-6-13,67,57,51,56,53,50,99,86,62,30.22,30.15,3,0,6,0.11
2013-6-14,67,58,52,53,51,49,91,77,57,30.24,30.07,3,0,9,0.00
2013-6-15,78,62,44,59,53,43,99,74,45,30.06,29.91,2,0,7,0.00
2013-6-16,75,63,54,64,56,51,98,79,52,30.10,29.99,3,0,9,0.05
2013-6-17,77,64,53,58,55,51,98,75,44,30.09,29.88,5,1,15,0.01
2013-6-18,71,62,55,58,53,46,99,75,43,29.99,29.87,3,0,7,0.00
2013-6-19,67,59,54,56,52,49,90,80,55,30.02,29.92,3,0,9,0.01
2013-6-20,59,56,52,56,53,50,98,90,80,30.13,29.97,2,0,9,0.69
2013-6-21,69,59,52,58,54,52,99,86,59,30.17,30.12,2,0,4,0.15
2013-6-22,77,63,48,60,55,48,100,76,48,30.13,29.85,5,0,7,0.00
2013-6-23,71,64,58,64,61,56,98,89,71,29.85,29.59,2,0,10,0.14
2013-6-24,66,61,56,61,58,56,100,92,77,29.71,29.58,3,0,7,0.33
2013-6-25,74,61,55,62,58,54,100,89,54,29.87,29.68,6,0,14,0.54
2013-6-26,72,62,55,65,60,55,100,91,65,30.08,29.86,2,0,8,0.04
2013-6-27,73,64,58,67,62,58,100,94,74,30.20,30.05,0,0,2,0.10
2013-6-28,88,73,62,69,65,62,100,79,46,30.19,30.02,3,0,7,0.00
2013-6-29,84,73,64,68,64,61,98,76,52,30.10,29.97,2,0,7,0.00
2013-6-30,93,76,58,70,65,58,100,73,45,30.01,29.83,2,0,6,0.00